Home > Time Zones > World Clock > Weather > Ghana > Accra > Past weeks

Flag for Ghana Weather past 2 weeks in Accra, Ghana

Now
79 °F

Clear.


Feels Like: 82 °F
Forecast: N/A
Wind: 7 mph from West

Location: Accra Airport

Current Time: Jan 26, 2015 at 11:35:37 PM

Latest Report: Jan 26, 2015 at 11:00 PM


Visibility: N/A

Pressure: 29.92 "Hg

Humidity: 79%

Dew point: 72 °F

Location of AccraLocation

Historic Weather in Accra — Graph

°F

Accra temperature yesterday

Maximum temperature yesterday: 88 °F (at 12:58 PM)
Minimum temperature yesterday: 75 °F (at 12:00 AM)
Average temperature yesterday: 81 °F

Past Weeks' High & Low Weather Summary

 TemperatureHumidityPressure
High90 °F (Jan 22, 1:02 PM)94% (Jan 17, 7:00 AM)29.98 "Hg (Jan 17, 7:00 AM)
Low72 °F (Jan 15, 4:00 AM)33% (Jan 15, 10:56 AM)29.77 "Hg (Jan 20, 3:00 PM)
Average81 °F80%29.87 "Hg
* Reported Jan 14 4:00 PM — Jan 26 10:00 PM, Accra, Weather by CustomWeather, © 2014

Note: Actual official high and low records may vary slightly from our data, if they occured in-between our weather recording intervals... More about our weather records

Advertising

Accra weather history for previous 24 hours

 ConditionsComfort  
Time TempWeatherWind HumidityBarometerVisibility
10:00 PM
Jan 26
79 °FClear.8 mph79%29.92 "Hg10 mi
9:00 PM81 °FClear.10 mph79%29.92 "Hg10 mi
8:00 PM81 °FClear.9 mph70%29.89 "Hg10 mi
7:00 PM79 °FPassing clouds.3 mph74%29.86 "HgN/A
6:00 PM82 °FScattered clouds.15 mph84%29.83 "HgN/A
4:00 PM86 °FPartly sunny.18 mph75%29.80 "Hg5 mi
3:00 PM86 °FPassing clouds.17 mph75%29.80 "Hg5 mi
2:00 PM88 °FScattered clouds.14 mph70%29.83 "Hg5 mi
1:00 PM90 °FPassing clouds.9 mph63%29.86 "Hg5 mi
12:00 PM88 °FPassing clouds.12 mph70%29.89 "Hg5 mi
11:00 AM86 °FScattered clouds.13 mph75%29.89 "Hg5 mi
9:58 AM82 °FFog.10 mph84%29.92 "Hg3 mi
9:00 AM81 °FFog.9 mph89%29.92 "Hg2 mi
8:00 AM79 °FFog.8 mph94%29.89 "Hg3 mi
7:00 AM77 °FFog.9 mph94%29.86 "Hg3 mi
6:00 AM77 °FClear.9 mph94%29.86 "Hg5 mi
5:00 AM77 °FClear.9 mph89%29.86 "Hg10 mi
4:00 AM77 °FClear.8 mph89%29.83 "Hg10 mi
3:00 AM77 °FClear.8 mph89%29.83 "Hg10 mi
2:00 AM77 °FClear.6 mph89%29.83 "Hg10 mi
1:00 AM77 °FClear.9 mph89%29.86 "Hg10 mi
12:00 AM79 °FPassing clouds.7 mph89%29.89 "HgN/A
11:00 PM
Jan 25
81 °FPassing clouds.8 mph89%29.89 "HgN/A
Weather by CustomWeather, © 2014

See weather overviewHow to use our weather pages